Location: Ar Ranvel
(48.3000°N, 4.8833°W)
Time: 05:45:23
(UTC+00:00)

FALCON 9 DEB - Visible Passes

Search period start: 18 October 2021 00:00
Search period end: 28 October 2021 00:00
Orbit: 350 x 362 km, 53.0° (Epoch: 17 October)

Date Brightness Start Highest point End Pass type
(mag) Time Alt. Az. Time Alt. Az. Time Alt. Az.
24 Oct 5.5 19:13:24 10° SSW 19:13:41 12° SSW 19:13:41 12° SSW visible
25 Oct 5.1 18:07:37 10° SE 18:08:07 10° SE 18:08:37 10° ESE visible
25 Oct 5.8 19:39:55 10° SW 19:40:18 13° SW 19:40:18 13° SW visible
26 Oct 3.8 18:32:16 10° SSW 18:34:50 27° SE 18:35:04 27° SE visible
27 Oct 3.0 18:58:46 10° SW 19:01:20 61° SSW 19:01:20 61° SSW visible
